Main page
METAR-TAF:

METAR-TAF

Airports :

São Gabriel da Cachoeira Airport

São Gabriel da Cachoeira, Amazonas, Brazil

latitude: 00-08S, longitude: 067-05W, elevation: 90 m

Current weather observation

The report was made 3 hours and 13 minutes ago, at 20:00 UTC
Wind 2 kt from the West
Temperature 31°C
Humidity 71%
Pressure 1006 hPa
Visibility 10 km or more
Scattered clouds at a height of 2000 ft

METAR: SBUA 202000Z 26002KT 9999 SCT020 31/25 Q1006 RETS

Time: 19:13 (23:13 UTC)


TAF: missing

Weather observations and forecasts of more than 4000 airports (METAR and TAF reports).

The available stations are represented by yellow and red dots on the map.

Hover mouse over dot to see the name of the station.

Then click to see weather observations and forecasts.

To change the map : click on the green buttons with a black cross to zoom in, on the green button with a dash to zoom out, or on the green arrows for adjacent maps.


METAR-TAF: